Regional Weather Roundup
Issued by NWS Glasgow, MT

Home | Current Version | Previous Version | Text Only | Print | Product List | Glossary On
Versions: 1 2 3 4 5 6 7 8 9 10 11 12 13 14 15 16 17 18 19 20 21 22 23 24 25 26 27 28 29 30 31 32 33 34 35 36 37 38 39 40 41 42 43 44 45 46 47 48 49 50
000
ASUS45 KGGW 051215
RWRGGW
HOURLY REGIONAL WEATHER ROUNDUP FOR NORTHEAST MONTANA
NATIONAL WEATHER SERVICE GLASGOW MONTANA
600 AM MDT SAT SEP 05 2015

NOTE: "FAIR" INDICATES FEW OR NO CLOUDS BELOW 12,000 FEET WITH NO
SIGNIFICANT WEATHER AND/OR OBSTRUCTIONS TO VISISBILITY.

NORTHEAST MONTANA


CITY           SKY/WX    TMP DP  RH WIND       PRES   REMARKS
GLASGOW        CLOUDY    53  48  83 N7        29.93S
6HR MIN TEMP:  52; 6HR MAX TEMP:  57; 6HR PCP:  0.15;

PLENTYWOOD       N/A     52  50  93 N10G23      N/A
WOLF POINT     CLOUDY    56  49  77 NE18G25   29.89F
JORDAN           N/A     54  49  83 N9        29.89F
WINNETT          N/A     51  49  92 NW8         N/A
SIDNEY         CLOUDY    59  55  88 N10         N/A
GLENDIVE       CLOUDY    57  55  94 NE15      29.86S
MALTA            N/A     50  48  93 NE7         N/A
OPHEIM           N/A     46  46 100 N7        29.79R

FORT PECK REPORTS


CITY           SKY/WX    TMP DP  RH WIND       PRES   REMARKS
THE PINES        N/A     55  50  83 NE12G23     N/A

SOUTHEAST MONTANA


CITY           SKY/WX    TMP DP  RH WIND       PRES   REMARKS
BILLINGS       CLOUDY    53  48  83 N8        29.90F
MILES CITY     CLOUDY    60  57  89 NE14      29.84R
BAKER          FAIR      61  58  90 CALM      29.84R
LIVINGSTON     CLOUDY    52  47  83 E15G25    29.87S

CENTRAL MONTANA


CITY           SKY/WX    TMP DP  RH WIND       PRES   REMARKS
HAVRE          CLOUDY    48  46  93 NE13      29.95F
LEWISTOWN      CLOUDY    48  46  93 SE10      29.92S
GREAT FALLS    RAIN      47  47 100 N12       29.91S VSB 1/4
CUT BANK       LGT RAIN  44  44 100 N7        29.96F
HELENA         LGT RAIN  48  45  89 W7        29.92R
BUTTE          CLOUDY    41  40  96 SE5       29.90F
BOZEMAN        CLOUDY    49  47  93 CALM      29.87R

WESTERN MONTANA


CITY           SKY/WX    TMP DP  RH WIND       PRES   REMARKS
MISSOULA       CLOUDY    50  47  89 S6        29.87R
KALISPELL      NOT AVBL

NORTH DAKOTA


CITY           SKY/WX    TMP DP  RH WIND       PRES   REMARKS
WILLISTON      MOCLDY    59  57  93 NE9       29.87S
DICKINSON      MOCLDY    63  61  93 E16       29.83F
MINOT          CLOUDY    59  57  93 NE15      29.90F
BISMARCK       CLOUDY    68  68 100 E12       29.84F FOG

SOUTHERN SASKATCHEWAN


CITY           SKY/WX    TMP DP  RH WIND       PRES   REMARKS
REGINA         LGT RAIN  50  48  93 N14G22    30.04R
ESTEVAN        MOCLDY    54  52  94 NE14      29.92F
SWIFT CURRENT  LGT RAIN  48 N/A N/A NE18      30.00F




USA.gov is the U.S. government's official web portal to all federal, state and local government web resources and services.